GFSNW_sfc_rhum_270.txt.gz
RH
76 76 77 77 81 80 80 91 68 75 67 56 82 89 64 63 54 47 46 47 47 48 51 52 47 44 44 48 41 44 43 72 75 46 34 36 40 54 70 74 88 81 98 78
79 79 79 79 83 82 94 95 94 77 62 51 88 78 65 60 54 51 47 49 50 51 52 55 52 53 58 51 52 66 58 57 62 29 39 45 49 43 42 48 83 88 93 77
78 78 79 79 80 78 91 92 90 88 91 92 82 72 74 67 56 55 47 50 52 55 57 54 61 57 54 55 51 58 56 76 55 52 40 60 62 52 49 53 66 60 56 50
79 79 79 79 80 74 84 97 97 90 96 87 86 77 75 73 71 63 58 65 61 72 70 68 66 69 68 59 56 62 59 72 72 64 58 57 60 58 51 54 52 63 46 42
82 80 82 83 81 68 93 98 96 89 87 78 79 79 84 77 68 65 66 69 66 63 71 74 80 77 76 77 64 67 67 79 75 74 56 51 57 49 50 51 50 48 48 49
80 81 83 84 78 71 95 97 93 90 86 81 80 80 74 74 67 61 60 69 74 73 66 66 65 63 63 64 69 70 74 75 79 84 59 60 72 51 44 40 42 48 57 44
82 83 84 86 81 80 96 97 94 93 97 76 69 73 74 74 76 74 71 72 73 63 63 62 63 69 69 70 69 66 72 78 75 87 68 93 49 42 40 42 36 44 42 41
86 85 84 85 82 79 97 98 94 95 99 85 80 77 80 80 79 79 75 70 62 64 68 81 86 81 67 67 70 74 70 75 90 93 84 60 52 44 43 47 46 38 35 32
85 83 82 82 83 79 96 98 96 95 95 88 72 79 80 87 93 89 78 67 64 70 81 96 100 94 65 62 60 55 66 76 88 99 97 95 53 45 41 44 52 34 35 54
85 84 84 83 82 81 93 97 92 91 97 88 79 92 90 89 91 87 82 75 77 78 98 100 99 95 67 82 61 54 61 80 93 86 94 84 54 42 35 63 51 54 47 48
82 83 83 84 81 81 89 96 95 91 98 88 78 73 82 89 86 90 73 81 86 95 96 96 93 99 80 93 72 80 92 89 93 80 87 86 44 45 62 49 57 56 55 50
83 82 82 80 79 79 84 98 95 87 97 90 83 70 62 62 63 81 81 78 84 91 98 99 98 98 98 90 87 61 77 66 84 84 58 49 56 52 48 49 56 50 55 50
84 84 84 85 85 83 86 97 99 98 99 99 99 94 82 77 66 59 89 93 71 80 84 99 98 98 95 94 84 69 62 56 69 65 53 48 44 40 38 37 44 44 50 53
87 87 89 90 88 88 88 99 97 97 98 100 92 83 92 81 80 71 62 70 82 82 96 99 98 97 89 96 80 82 64 62 62 64 55 50 45 42 43 42 41 42 43 56
87 88 90 90 90 90 94 99 98 94 99 99 98 89 72 79 88 90 80 79 83 90 99 99 98 97 92 93 97 89 60 63 72 73 52 54 50 45 44 48 49 46 53 59
88 88 88 86 88 88 97 100 99 97 94 100 99 88 90 87 90 95 96 89 90 96 99 97 99 76 93 98 88 51 43 42 45 62 68 80 81 70 60 57 51 49 55 54
86 84 83 87 86 94 97 94 89 93 96 100 99 98 85 84 91 96 98 92 94 96 98 99 95 84 92 97 94 58 67 95 95 94 95 97 89 95 92 85 64 61 74 65
86 86 84 83 88 93 96 94 92 95 98 100 98 95 90 85 96 98 98 96 99 100 98 99 99 91 99 98 77 85 91 93 82 76 77 92 94 95 93 88 95 95 97 87
84 87 84 94 98 100 98 84 92 98 96 100 99 99 94 87 96 98 99 98 98 99 99 98 98 99 97 92 97 95 94 97 96 92 80 79 94 94 91 97 98 98 97 96
86 89 98 100 99 86 89 93 100 100 100 100 99 93 97 92 98 95 99 100 99 99 96 98 99 95 89 82 97 98 97 96 96 95 90 90 91 94 91 90 96 97 96 95
98 100 100 97 92 96 100 99 99 100 99 95 93 94 96 91 95 97 97 96 90 98 94 98 98 98 94 87 89 90 95 96 96 96 95 97 95 96 98 98 97 96 93 93
98 97 97 99 99 100 99 98 97 97 95 96 95 91 85 96 99 99 100 96 94 96 96 98 99 98 84 91 93 91 91 94 95 95 96 94 93 94 96 96 96 94 95 95
94 98 100 100 98 98 96 92 96 99 96 98 98 100 99 100 99 99 99 99 90 93 98 93 97 89 86 95 93 93 90 89 89 93 94 94 93 93 91 95 94 94 95 96
100 99 98 97 96 95 91 90 93 89 94 98 97 100 99 99 98 96 99 89 93 91 94 95 95 90 96 97 95 94 95 92 93 95 95 95 95 95 95 96 95 94 94 96
99 100 97 98 92 94 96 96 98 97 97 99 100 100 99 99 98 97 92 96 90 90 95 97 93 96 98 98 97 97 96 94 95 92 93 95 91 90 95 96 95 91 93 95
99 99 99 98 97 98 99 98 98 98 98 94 92 96 99 95 96 95 81 83 93 92 97 96 92 93 99 100 96 95 94 90 91 88 84 86 89 88 92 90 90 92 89 90
99 98 97 98 98 95 96 98 97 97 92 97 98 98 92 95 96 91 94 96 94 98 96 97 91 98 96 98 93 89 80 80 80 77 74 74 70 70 74 82 79 77 82 90

GFSNW_sfc_rhum_273.txt.gz
RH
75 76 76 77 82 77 75 80 51 71 67 46 60 71 54 59 46 41 41 43 39 39 41 41 36 37 48 44 45 48 43 51 44 29 23 32 36 34 33 46 46 67 83 63
78 79 78 80 81 77 86 86 79 71 60 38 73 66 58 54 46 45 41 44 43 43 42 41 42 45 50 49 46 54 51 43 40 23 31 34 41 36 35 38 47 59 77 54
77 78 77 79 78 73 86 84 82 75 78 76 67 63 61 58 52 52 50 51 50 48 46 50 50 48 53 54 46 54 58 56 44 40 27 32 43 40 37 42 54 47 47 44
79 79 78 78 76 68 76 93 93 78 83 74 68 64 62 59 60 55 51 56 54 56 57 57 56 63 58 52 48 54 55 57 53 48 49 51 51 48 44 47 45 51 43 36
80 80 80 81 76 69 86 95 89 76 74 70 66 69 69 66 60 53 57 60 58 54 58 53 60 62 58 57 53 46 55 54 55 61 51 51 54 47 43 43 41 41 42 42
80 79 80 83 76 69 84 94 85 84 77 69 65 67 67 64 57 64 56 60 61 62 55 54 55 53 53 50 53 52 57 59 64 68 45 48 63 40 35 37 36 39 45 36
80 81 84 84 79 79 83 92 86 90 85 63 62 66 62 63 62 60 64 62 60 54 53 51 56 61 59 58 57 52 52 55 64 80 63 90 38 35 35 38 34 31 30 29
84 83 85 83 79 79 94 93 92 91 92 68 68 68 70 69 67 64 63 58 54 59 53 67 74 65 48 48 61 59 61 65 82 89 74 50 44 36 37 40 38 32 31 28
85 84 84 83 77 75 92 96 89 94 94 83 64 67 66 65 66 70 69 60 59 60 67 80 84 78 55 54 43 45 64 69 77 87 91 80 36 34 32 37 54 28 26 34
85 84 84 84 82 76 87 96 88 86 94 74 72 74 74 73 75 60 69 62 63 69 83 89 93 81 56 62 53 43 46 55 80 73 88 61 38 34 34 60 50 36 38 42
82 81 82 82 80 76 87 91 91 86 92 74 70 67 75 75 68 69 62 68 75 84 87 86 84 89 61 74 52 51 57 69 72 61 79 82 32 36 52 41 41 45 45 45
82 80 79 77 77 79 86 95 92 82 92 84 74 67 62 59 59 58 68 65 71 77 86 89 88 94 90 76 78 48 67 55 56 59 47 37 39 44 36 37 40 39 42 42
78 79 80 82 82 80 85 97 97 96 98 97 97 90 77 74 60 62 77 79 63 71 74 91 91 97 83 86 67 56 48 46 60 61 50 44 41 38 37 37 43 38 35 34
81 82 85 86 87 86 85 98 97 95 98 100 88 75 83 73 74 60 56 71 76 76 86 98 96 96 78 86 70 72 58 57 62 64 57 50 46 42 44 43 41 42 39 40
83 84 87 88 88 88 94 98 97 92 98 99 95 84 76 77 82 78 70 69 73 87 100 100 96 89 90 84 84 87 58 61 82 89 85 97 92 90 90 86 66 48 47 45
83 84 85 87 87 89 95 99 96 95 95 100 98 80 80 79 86 89 88 79 79 96 100 97 95 80 91 97 91 47 47 73 88 97 98 98 89 75 69 84 94 93 74 58
86 86 82 87 90 93 96 93 89 93 95 100 96 92 74 76 88 91 93 89 92 91 99 100 94 91 98 98 87 61 76 90 82 83 87 89 71 85 78 88 88 78 86 95
84 89 83 87 91 88 95 92 93 93 96 100 98 88 85 74 91 96 89 96 97 100 100 100 99 89 100 96 73 77 76 82 72 72 71 80 88 93 90 89 90 90 96 95
83 88 85 91 94 100 97 82 92 97 95 100 99 93 84 78 92 94 99 97 100 97 100 97 95 92 96 84 95 93 92 95 96 84 70 74 95 92 79 79 87 99 100 98
86 94 96 100 98 83 91 98 100 100 100 100 98 80 89 82 91 92 95 99 97 96 88 98 100 86 78 79 85 92 90 90 93 93 90 90 96 97 96 96 98 96 97 95
95 100 100 95 90 97 100 100 99 98 96 95 96 87 85 81 89 87 90 92 93 94 83 94 90 83 87 83 89 89 88 90 92 93 95 93 93 95 96 95 95 93 93 95
97 95 92 98 99 100 99 96 89 90 87 89 92 86 78 88 93 98 100 94 95 89 87 94 90 88 80 90 91 88 89 93 91 91 94 95 88 92 92 94 95 95 95 95
95 98 99 100 98 98 95 96 88 95 87 91 96 98 93 97 99 100 100 96 91 82 95 86 82 83 81 90 90 92 88 88 88 92 91 94 96 94 95 95 96 96 95 96
100 100 99 98 96 88 86 81 86 86 89 94 94 100 100 100 98 93 94 82 88 93 95 87 83 83 87 91 92 91 96 93 93 94 92 93 93 95 94 95 96 92 94 96
99 100 98 96 86 89 90 88 92 92 90 96 100 100 95 97 91 92 85 95 86 77 82 82 89 88 92 97 97 96 94 94 94 91 93 92 90 90 94 95 94 90 92 93
100 99 98 96 94 96 97 94 90 90 96 95 90 94 95 92 86 91 83 78 79 77 83 90 86 91 96 98 93 90 86 84 84 82 78 81 85 83 86 85 85 93 90 91
99 98 94 95 94 93 92 95 94 90 96 96 91 93 83 86 90 86 70 88 79 89 94 88 82 89 94 94 87 88 79 75 71 70 69 71 68 67 68 77 74 73 77 90

GFSNW_sfc_rhum_279.txt.gz
RH
75 74 75 76 76 72 70 40 31 44 40 28 15 32 25 42 21 20 19 18 16 16 17 16 15 16 22 22 22 21 22 27 26 18 11 9 13 22 23 30 33 28 33 39
76 76 75 74 71 72 28 26 28 36 43 22 22 36 29 24 24 20 19 22 20 20 20 20 20 24 28 27 23 32 25 23 25 12 16 15 21 15 15 19 23 31 44 32
77 75 78 77 71 64 50 28 60 26 23 27 24 33 30 33 26 25 22 23 21 22 24 22 25 26 33 33 26 48 41 31 33 30 25 20 24 18 17 21 31 29 27 25
77 77 78 78 69 66 47 41 53 43 34 24 27 27 24 27 31 24 22 26 22 23 27 25 28 24 29 30 35 31 32 40 31 23 21 22 22 20 19 21 21 28 24 21
78 77 79 78 73 67 38 78 42 37 38 25 28 38 30 24 25 26 26 28 22 24 26 23 24 27 30 28 28 33 30 45 40 39 21 18 21 19 19 19 19 19 18 18
75 75 78 80 80 68 32 52 50 47 48 37 30 31 27 24 30 38 27 25 28 30 27 28 29 30 31 31 34 36 40 43 46 41 26 32 43 28 20 19 18 20 25 22
77 77 81 80 80 70 39 44 37 69 59 29 28 31 28 27 33 34 31 29 31 41 30 28 30 32 32 33 34 33 42 41 41 57 43 74 27 17 19 22 18 17 17 16
79 81 83 79 77 76 44 44 38 43 60 27 40 35 31 35 39 38 39 36 34 32 32 43 60 50 38 32 31 31 31 39 63 76 60 42 30 18 23 27 27 19 20 19
84 85 84 81 76 74 48 62 47 52 82 49 31 35 37 41 38 45 40 40 38 38 33 58 99 80 40 31 27 24 27 36 49 84 88 78 31 23 20 23 38 22 31 34
81 81 80 79 74 71 47 54 65 40 99 42 35 39 39 27 28 32 43 48 49 44 51 70 81 70 32 42 36 32 39 43 58 63 90 57 28 24 26 70 48 48 48 49
79 76 75 77 78 75 47 57 55 40 81 51 43 38 36 32 30 42 44 51 55 58 65 68 76 69 44 42 31 35 38 49 56 48 73 74 28 29 47 54 64 61 65 65
76 73 74 76 78 78 77 50 51 49 58 63 48 41 40 39 38 34 47 53 48 50 67 64 60 80 65 53 59 30 47 37 44 45 45 34 32 40 43 42 52 56 62 74
72 72 75 79 80 77 70 52 55 48 76 73 59 49 42 35 35 38 54 43 42 48 52 76 80 97 56 74 51 42 34 32 45 50 38 37 41 40 41 48 62 54 60 66
72 76 78 80 80 79 81 68 55 56 67 100 77 44 52 43 41 39 41 52 50 50 46 100 100 100 56 74 56 56 43 44 49 51 40 51 45 49 56 61 64 87 62 64
79 80 80 82 82 84 71 77 64 61 80 98 82 49 44 45 46 45 45 47 52 61 95 100 96 70 74 70 65 70 39 41 59 81 64 86 77 60 60 77 87 77 59 68
78 80 82 82 83 89 83 95 78 68 62 90 100 58 52 52 52 52 53 49 52 66 87 92 75 53 69 96 76 38 30 34 43 87 71 69 66 61 66 88 84 71 57 60
85 81 84 85 88 80 85 87 68 74 71 100 98 84 59 62 67 72 70 61 72 74 89 97 73 63 79 99 86 40 35 46 57 54 66 80 67 84 82 76 74 71 58 53
83 81 89 86 80 76 78 66 79 70 87 87 97 80 80 61 90 95 78 88 88 94 90 87 84 74 95 97 46 37 48 62 57 61 58 65 76 80 75 65 70 81 90 90
82 82 87 78 80 95 80 86 83 80 81 100 87 74 90 59 93 91 94 88 100 87 100 82 75 79 93 53 47 79 82 96 94 74 63 63 83 86 79 74 74 81 92 95
81 76 76 100 79 87 84 85 98 97 100 90 87 48 84 65 81 96 97 98 92 98 82 70 94 66 43 48 62 85 94 90 89 91 90 85 83 83 84 89 79 78 87 90
68 84 88 77 82 83 94 100 100 98 98 97 79 54 74 48 90 86 69 92 80 86 81 73 75 67 58 61 74 81 82 86 89 83 83 81 75 76 84 91 90 85 87 90
91 95 76 88 97 100 97 82 65 76 59 72 80 73 64 89 62 83 94 84 80 83 72 91 77 68 60 70 80 76 80 85 85 84 86 86 76 82 91 92 94 91 87 89
72 88 86 100 90 100 88 84 66 68 55 68 78 92 80 74 61 80 84 98 85 57 92 72 59 58 62 69 77 86 80 79 80 83 86 87 89 88 86 89 94 92 89 86
81 100 96 90 95 68 53 49 50 50 56 66 73 84 84 94 90 96 92 67 61 84 90 66 55 58 71 75 85 86 91 86 86 86 85 83 84 88 84 83 86 90 94 92
93 98 91 61 53 56 68 63 56 61 58 72 89 97 88 86 91 70 65 82 81 64 61 57 77 72 76 89 89 89 89 87 86 84 84 83 83 82 88 86 85 84 87 87
92 94 86 64 76 92 89 77 73 56 67 76 87 89 84 78 69 72 79 61 55 51 52 77 70 78 87 92 88 87 84 76 78 75 71 73 75 75 77 75 77 83 79 80
65 64 58 64 76 80 78 72 66 57 80 93 83 84 68 59 68 63 54 61 53 72 76 62 58 72 83 80 79 88 76 69 62 60 60 62 62 62 63 67 64 58 65 82

GFSNW_sfc_rhum_285.txt.gz
RH
81 78 75 75 75 74 67 76 65 75 71 56 60 58 35 40 22 25 26 27 24 26 24 25 22 33 32 25 29 34 38 41 48 27 19 18 19 25 30 49 51 43 50 39
81 78 74 73 74 73 83 68 81 67 74 56 53 41 33 27 24 23 25 27 27 24 29 31 29 42 32 31 42 50 38 39 46 31 24 25 27 22 22 28 37 36 66 43
83 80 77 72 71 70 76 80 87 70 67 61 54 48 42 35 28 27 24 26 28 34 34 26 38 42 41 36 43 53 46 40 45 55 46 36 41 31 27 30 46 39 35 30
80 80 79 74 69 70 75 88 85 57 65 45 42 52 41 37 37 31 29 34 29 30 37 36 35 36 46 41 56 42 44 56 55 45 38 37 36 33 30 32 32 40 32 30
79 78 83 83 77 68 78 92 82 68 69 37 37 54 44 37 30 31 34 37 29 28 39 40 44 36 41 43 50 46 46 62 60 59 41 35 40 34 34 31 29 31 34 41
73 74 80 82 83 71 67 83 81 80 68 49 51 54 39 34 39 46 34 34 37 50 51 46 44 45 46 48 47 48 49 61 73 74 45 50 64 47 36 35 36 41 60 68
73 77 80 82 82 80 84 81 69 94 92 56 46 37 37 38 43 45 39 49 48 50 37 38 38 39 37 41 43 42 52 56 69 88 70 80 51 34 35 44 39 62 61 58
79 80 80 82 82 82 80 88 90 84 92 48 43 39 49 49 50 51 59 54 51 45 42 66 76 80 58 52 46 45 47 57 83 87 91 62 48 37 45 50 64 62 66 63
83 82 82 83 84 84 79 88 92 94 97 79 42 46 54 63 72 60 63 54 50 49 61 88 90 94 69 50 44 38 41 53 75 91 89 86 51 42 39 42 62 64 66 72
81 83 84 85 85 85 77 84 84 91 100 68 63 60 64 49 62 75 67 62 63 60 76 95 94 89 44 58 48 50 58 68 75 90 92 83 45 50 44 76 77 70 72 76
81 84 86 86 86 86 87 84 87 87 99 72 67 61 65 50 65 81 73 75 74 80 89 93 94 91 68 59 47 47 58 77 88 82 86 82 51 56 82 76 74 74 78 82
79 83 86 86 86 86 85 80 78 77 93 85 67 61 56 58 66 73 71 75 68 81 95 95 94 94 91 74 84 44 66 59 72 68 72 59 60 69 66 70 79 80 78 73
78 83 84 85 85 86 89 81 82 85 98 92 92 78 52 41 49 58 83 76 68 73 77 99 99 98 90 94 87 70 55 52 70 64 51 67 67 62 64 72 81 77 73 81
81 82 83 85 86 87 86 88 84 84 94 98 91 53 62 52 48 53 64 67 79 82 94 100 97 100 82 95 85 85 70 62 63 70 64 68 68 69 78 78 75 77 78 84
79 80 82 84 84 85 92 93 84 81 93 97 94 66 58 52 51 53 52 64 76 94 98 98 99 98 87 94 87 94 61 67 84 91 86 88 84 77 78 77 82 80 83 83
85 83 82 82 83 84 95 100 88 76 85 98 97 72 70 63 60 61 62 71 85 94 99 100 95 70 84 95 87 59 51 66 74 93 79 77 77 78 75 77 78 79 84 86
86 90 86 83 82 93 97 94 92 74 82 100 98 98 79 70 70 79 86 83 90 94 98 98 95 82 85 96 98 55 56 69 73 73 77 86 84 93 78 70 72 75 77 82
85 86 82 78 78 86 94 89 78 86 88 97 96 100 96 72 92 98 86 97 96 97 99 96 95 86 97 99 76 59 67 77 72 69 70 88 89 83 75 70 73 78 84 86
84 84 84 92 93 98 98 81 79 90 95 95 95 96 97 81 99 97 98 94 98 94 99 97 89 94 98 78 69 80 89 94 91 76 75 81 88 83 78 74 76 83 95 95
77 87 96 99 97 82 85 88 97 100 100 100 96 78 99 93 100 99 99 100 97 99 94 91 96 95 64 60 80 93 94 92 90 93 93 84 83 87 84 84 78 82 92 93
88 94 98 94 81 94 94 98 98 99 96 97 94 82 97 84 96 99 94 97 97 97 96 95 97 96 83 89 95 91 90 92 92 92 92 91 84 88 89 92 90 93 95 96
92 88 88 82 88 98 97 92 92 93 89 93 95 94 96 96 87 98 98 95 94 97 91 98 97 94 92 92 93 88 83 89 88 90 92 88 84 88 91 93 96 97 95 97
89 78 90 91 91 98 83 92 86 92 93 89 94 97 95 93 87 96 96 95 96 86 96 84 90 89 86 90 91 89 84 86 88 90 89 95 97 92 93 97 98 97 96 97
91 96 85 86 88 81 84 80 78 77 90 89 92 96 96 97 94 96 84 86 87 96 96 89 92 88 90 90 89 87 88 88 89 89 91 91 94 94 94 94 95 95 96 95
89 85 85 85 79 82 84 83 82 87 84 90 96 96 94 95 94 93 83 91 95 89 87 94 95 89 92 95 90 90 85 90 89 85 84 84 90 94 96 95 93 94 95 94
94 86 91 86 92 90 94 94 96 92 88 86 90 95 96 85 93 92 90 81 80 82 90 96 91 95 94 92 90 88 87 82 83 79 78 80 80 87 90 84 86 96 93 95
92 94 81 85 89 94 97 92 89 91 96 99 91 93 84 83 90 89 84 87 88 98 98 92 86 91 91 89 86 87 82 80 77 76 77 77 79 79 81 84 84 77 82 94